san ya , China , Asia

  • Wednesday
    December 2

    Cloudy  Cloudy

    81 °F  68 °F

    No wind  No wind

        

  • Thursday
    December 3

    Cloudy  Cloudy

    79 °F  64 °F

    No wind  Northeast

       3~4L 

  • Friday
    December 4

    Cloudy  Cloudy

    77 °F  63 °F

    No wind  No wind

        

  • Saturday
    December 5

    Cloudy  Cloudy

    72 °F  64 °F

    Northeast  Northeast

    3~4L   3~4L 

  • Sunday
    December 6

    Cloudy  Cloudy

    75 °F  64 °F

    No wind  No wind

        

  • Monday
    December 7

    Sunny  Cloudy

    75 °F  66 °F

    East  No wind

    3~4L    

  • Tuesday
    December 8

    Light rain  Light rain

    75 °F  64 °F

    No wind  No wind

        

Date   Weather Temperature Humidity Total_rain Visibility Wind
11:00 Sunny 78°F 78.3% 0mm 245.4km Northeast  8.5m/s
14:00 Cloudy 81°F 76.7% 0mm 259.2km Northeast  7.3m/s
17:00 Sunny 76°F 83.8% 0mm 256km Northeast  7.4m/s
20:00 Sunny 72°F 85.8% 0mm 225.6km Northeast  8.0m/s
23:00 Cloudy 69°F 87.9% 0mm 227.8km Northeast  7.7m/s
02:00 Sunny 69°F 87.5% 0mm 226.1km Northeast  6.5m/s
05:00 Sunny 69°F 87.1% 0mm 239.7km Northeast  7.8m/s
08:00 Sunny 70°F 83.3% 0mm 246.9km Northeast  8.1m/s
08:00 Sunny 70°F 83.3% 0mm 246.9km Northeast  8.1m/s
11:00 Sunny 76°F 72.8% 0mm 259km Northeast  5.3m/s
14:00 Sunny 79°F 80.1% 0mm 264.9km Northeast  5.2m/s
17:00 Sunny 73°F 84.3% 0mm 266.6km Northeast  5.7m/s
20:00 Sunny 67°F 86.2% 0mm 246.9km Northeast  6.9m/s
23:00 Sunny 67°F 88% 0mm 235.2km Northeast  7.1m/s
02:00 Sunny 66°F 89.8% 0mm 237.3km Northeast  8.2m/s
05:00 Sunny 65°F 89.2% 0mm 248.1km Northeast  6.9m/s
08:00 Sunny 68°F 74.7% 0mm 247.4km Northeast  5.8m/s
11:00 Sunny 71°F 71.8% 0mm 258.8km Northeast  5.3m/s
14:00 Sunny 77°F 75.7% 0mm 275.2km Northeast  5.4m/s
17:00 Sunny 76°F 78.9% 0mm 265.3km Northeast  5.2m/s
20:00 Sunny 65°F 81.1% 0mm 246.7km Northeast  6.1m/s
23:00 Sunny 64°F 83.3% 0mm - Northeast  7.2m/s
02:00 Sunny 64°F 83.1% 0mm 248km Northeast  7.0m/s
05:00 Sunny 64°F 83.5% 0mm - Northeast  5.4m/s
08:00 Sunny 64°F 83.9% 0mm 246.8km Northeast  5.7m/s
11:00 Cloudy 71°F 77.6% 0mm - Northeast  4.6m/s
14:00 Cloudy 71°F 77.9% 0mm 258.1km Northeast  5.2m/s
17:00 Cloudy 71°F 79.4% 0mm - Northeast  5.2m/s
20:00 Sunny 65°F 80.3% 0mm 245.2km Northeast  6.9m/s
23:00 Cloudy 65°F 83.2% 0mm - Northeast  6.4m/s
02:00 Cloudy 65°F 83% 0mm 250.5km Northeast  6.2m/s
05:00 Cloudy 65°F 80.7% 0mm - Northeast  4.8m/s
08:00 Cloudy 68°F 76.4% 0mm 226.3km Northeast  5.8m/s
11:00 Cloudy 75°F 86.2% 0mm - Northeast  7.1m/s
14:00 Cloudy 76°F 89.7% 0mm 249.4km Northeast  6.0m/s
17:00 Cloudy 73°F 91.2% 0mm - Northeast  5.7m/s
20:00 Cloudy 67°F 92% 0mm 220.4km Northeast  7.1m/s
23:00 Cloudy 67°F 93.4% 0mm - Northeast  6.5m/s
02:00 Cloudy 66°F 91% 0mm 228.1km Northeast  5.6m/s
05:00 Cloudy 67°F 88.4% 0mm - Northeast  5.9m/s
08:00 Cloudy 69°F 86.8% 0mm - Northeast  5.6m/s
11:00 Sunny 74°F 58.4% 0mm - Northeast  6.3m/s
14:00 Sunny 76°F 66% 0mm - Northeast  5.8m/s
17:00 Sunny 71°F 85.7% 0mm - Northeast  6.0m/s
20:00 Sunny 68°F 84.6% 0mm - Northeast  6.0m/s
23:00 Cloudy 68°F 83.4% 0mm - Northeast  6.6m/s
02:00 Cloudy 67°F 82.8% 0mm - Northeast  6.7m/s
05:00 Cloudy 67°F 91.3% 0mm - Northeast  6.2m/s
08:00 Cloudy 70°F 95.6% 0mm - Northeast  5.3m/s
11:00 Light rain 71°F 60.3% 0.2mm - Northeast  5.6m/s
14:00 Light rain 76°F 63.9% 0.1mm - Northeast  6.4m/s
17:00 Light rain 72°F 87% 0.3mm - Northeast  5.8m/s
20:00 Light rain 68°F 91.4% 0.2mm - Northeast  6.1m/s
23:00 Light rain 67°F 95% 0.1mm - Northeast  6.3m/s
02:00 Overcast 65°F 89.9% 0mm - Northeast  6.4m/s
05:00 Cloudy 65°F 89.4% 0mm - Northeast  6.2m/s